Regional Weather Roundup
Issued by NWS Wakefield, VA

Home | Current Version | Previous Version | Text Only | Print | Product List | Glossary Off
Versions: 1 2 3 4 5 6 7 8 9 10 11 12 13 14 15 16 17 18 19 20 21 22 23 24 25 26

000
ASUS41 KAKQ 290915
RWRAKQ

REGIONAL WEATHER ROUNDUP
NATIONAL WEATHER SERVICE WAKEFIELD VA
500 AM EDT THU SEP 29 2016

Note: "fair" indicates few or no clouds below 12,000 feet with no
significant weather and/or obstructions to visibility. * = Denotes
station may not report precipitation (e.g., rain,snow,etc.),
thunder or fog.

VAZ042-051-052>054-056-291000-
NORTHERN VIRGINIA

CITY           SKY/WX    TMP DP  RH WIND       PRES   REMARKS
WASH NATIONAL  LGT RAIN  68  67  96 E22G31    30.04F
DULLES         LGT RAIN  66  63  90 E12G24    30.04S
FORT BELVOIR   NOT AVBL
QUANTICO       LGT RAIN  69  66  90 E5        30.04S
FREDERICKSBRG* HVY RAIN  68  68 100 S3        30.03R
STAFFORD*      CLOUDY    67  67 100 NE3       30.06F
WARRENTON      CLOUDY    68  63  83 E8        30.02S
CULPEPER*      CLOUDY    68  67  98 CALM      30.03S
MANASSAS*      CLOUDY    66  66 100 E12G21    30.04R
LEESBURG*      CLOUDY    68  68 100 SE12G21   30.05S
WINCHESTER     CLOUDY    63  61  94 NW5         N/A
FRONT ROYAL*   CLOUDY    61  61 100 N3        30.03R
LURAY*         CLOUDY   N/A N/A N/A N5        30.01S
$$

VAZ048-049-060>072-079>083-291000-
CENTRAL AND SOUTH CENTRAL VIRGINIA

CITY           SKY/WX    TMP DP  RH WIND       PRES   REMARKS
RICHMOND       LGT RAIN  67  65  93 NW8       30.02R
CHESTERFIELD*  CLOUDY    66  54  63 SE5       30.01F
PETERSBURG*    TSTM     N/A N/A N/A E9        29.99F
HANOVER        NOT AVBL
TAPPAHANNOCK*  CLOUDY    69  69 100 E6        30.03S
QUINTON*       CLOUDY    68  67  98 E6        30.01R
CHARLOTTSVILLE CLOUDY    68  65  90 NE6       30.00S
GORDONSVILLE*  CLOUDY    66  66 100 N7        29.99F
ORANGE*        RAIN      66  66 100 CALM      30.03R
LOUISA*        RAIN      70  70 100 E6        29.98F
BUMPASS*       CLOUDY    66  66 100 E7        29.99F
FARMVILLE*     CLOUDY    68  68  99 NE5       29.97R FOG
CREWE*         PTSUNNY   66  66 100 CALM      29.97R
FORT PICKETT*  PTSUNNY  N/A N/A N/A CALM      29.98R
CHASE CITY*    FAIR      65  63  94 CALM      29.97F
CLARKSVILLE*   FAIR      63  63 100 CALM      29.96S
SOUTH HILL*    CLOUDY    66  66 100 S5        30.03R
LAWRENCEVILLE* CLOUDY    65  64  95 SE6       29.97F
EMPORIA*         N/A     68  66  94 CALM      30.01F
$$

VAZ088>098-291000-
SOUTHEAST VIRGINIA

CITY           SKY/WX    TMP DP  RH WIND       PRES   REMARKS
NORFOLK        CLEAR     72  70  93 SE5       30.00F
VIRGINIA BEACH PTCLDY    68  67  96 CALM      30.00S
NORFOLK NAVAL  PTCLDY    72  70  93 SE5       30.02S
WEST POINT*    CLOUDY    68  67  98 E8        30.03S
SALUDA*        PTSUNNY   69  69 100 NE6       30.03S
NEWPORT NEWS   CLOUDY    71  69  93 N8        30.02R THUNDER
LANGLEY AFB    NOT AVBL
FORT EUSTIS    NOT AVBL
WILLIAMSBURG*  CLOUDY    70  70 100 E6        30.03R
HR EXEC AP*    FAIR      66  64  94 CALM      30.02S
FRANKLIN*      PTCLDY    69  69  97 CALM      30.01S
US460-WAKEFLD  MOCLDY    70  69  97 CALM      30.00S
$$

VAZ020-022-025-037-045-291000-
WEST CENTRAL AND SOUTHWEST VIRGINIA

CITY           SKY/WX    TMP DP  RH WIND       PRES   REMARKS
STAUNTON*      CLOUDY    61  61  98 N5        30.03S
WAYNESBORO*    CLOUDY    61  60  96 CALM      30.01S
HOT SPRINGS VA RAIN      58  58 100 E3        30.04S VSB<1/4
LYNCHBURG      CLOUDY    65  64  97 NE6       29.99S FOG
DANVILLE       CLOUDY    65  64  97 NE3       29.97R
SOUTH BOSTON*  FAIR      63  62  95 CALM      29.96F
MARTINSVILLE   CLOUDY    65  62  90 CALM      29.99S
ROANOKE        CLOUDY    64  64 100 NE5       29.99S
BLACKSBURG     CLOUDY    59  59  99 CALM      30.03R FOG
DUBLIN*        CLOUDY    59  55  89 CALM      30.01S
MARION*        MOCLDY    51  49  93 CALM      30.02S
HILLSVILLE*    CLOUDY    57  57 100 N3        29.99S
RICHLANDS*     PTSUNNY   53  50  92 NE6       29.99R
WISE*          CLOUDY    52  52 100 CALM      30.01S
ABINGDON*      CLOUDY    57  51  80 E3        29.97S
$$

MDZ021>025-VAZ099-100-291000-
SOUTHERN MARYLAND AND THE DELMARVA PENINSULA

CITY           SKY/WX    TMP DP  RH WIND       PRES   REMARKS
PATUXENT RIVER MOCLDY    68  65  90 E13G18    30.05S
BAY BRIDGE APT LGT RAIN  66  64  94 MISG      30.09R
LEONARDTOWN    CLOUDY    66  64  94 CALM      30.06S
DOVER          NOT AVBL
GEORGETOWN     LGT RAIN  68  68 100 E12G24    30.11R FOG
EASTON         NOT AVBL
CAMBRIDGE      CLOUDY    66  64  94 E8G17     30.07S
SALISBURY      LGT RAIN  67  66  97 E16       30.08R
OCEAN CITY     TSTM      72  68  87 E23G37    30.08R
WALLOPS ISLAND LGT RAIN  71  70  96 E13G22    30.08R FOG
ACCOMACK*      CLOUDY    70  67  92 E9        30.05R THUNDER
$$

NCZ012>017-030>032-291000-
NORTH CENTRAL AND EASTERN NORTH CAROLINA

CITY           SKY/WX    TMP DP  RH WIND       PRES   REMARKS
ROANOKE RAPIDS PTSUNNY   68  68 100 CALM      29.99F FOG
RALEIGH        TSTM      66  64  93 SE15      29.95F
ELIZABETH CITY CLEAR     72  71  97 E5        30.00F
AHOSKIE*       CLOUDY    70  70  99 CALM      30.00S FOG
EDENTON*       CLOUDY    73  73 100 CALM      30.01S
CURRITUCK*     NOT AVBL
KILL DEVIL HLS CLEAR     74  74 100 CALM      29.99F
MANTEO         CLEAR     73  73 100 CALM      30.00F
CAPE HATTERAS  MOCLDY    75  72  90 E5        29.99F
TARBORO*       FOG       70  69  98 CALM      29.99F VSB 3/4
GOLDSBORO      NOT AVBL
WASHINGTON     PTCLDY    69  69  98 CALM      29.98F
GREENVILLE     LGT RAIN  72  70  94 CALM      30.01S
NEW BERN       CLEAR     69  68  96 CALM      29.98F
WILMINGTON     PTCLDY    71  69  93 CALM      29.95S
$$

VAZ048-291000-
ELSEWHERE

CITY           SKY/WX    TMP DP  RH WIND       PRES   REMARKS
HARRISBURG PA  LGT RAIN  59  58  96 E15G25    30.11F
BALTIMORE      RAIN      65  63  93 E18       30.10R FOG
ANNAPOLIS      LGT RAIN  68  66  93 E14G24    30.08S
ANDREWS AFB    NOT AVBL
PHILADELPHIA   LGT RAIN  61  59  93 NE15      30.19F
HENDERSON NC   LGT RAIN  63  60  93 S5        29.96F
GREENSBORO     CLOUDY    65  64  97 CALM      29.95R
ROCKY MOUNT    CLOUDY    67  67 100 CALM      29.99R
$$

VAZ100-291000-
MARINE

STATION/POSITION TIME  TEMP    WIND        PRES    WAVE   SWELL
                       AIR SEA DIR/SP/G            HT/PER HT/PER
                 (UTC) (F)     (DEG/KT/KT) (MB)    (FT/S) (FT/S)
BRANDYWINE LGT   0848   67      80/ 26/ 30   N/A
CAPE MAY NJ      0848   67 71   60/ 14/ 22 1019.4F
LEWES DE         0848   69 71   80/ 29/ 38 1018.3F
OCEAN-CITY-INLET 0848   69 73  110/ 15/ 22 1018.9R
WACHAPREAGUE VA  0842   71 74   30/ 10/ 13 1017.3R
THOMAS POINT MD  0900   67 73   80/ 24/ 27 1019.4R
GOOSES REEF MD   0850   70     100/ 21/ 25 1017.9F
COVE POINT MD    0842   68      90/ 15/ 22 1018.1F
SOLOMONS ISLAND  0842   69 74   60/ 14/ 19   N/A
BISHOPS HEAD MD  0848   68 71   50/ 12/ 16 1018.2R
PINEY POINT MD   0848           90/ 11/ 15   N/A
POTOMAC MD       0850   71      70/ 14/ 17 1016.3R
CAMBRIDGE MD     0848   69 72   70/ 16/ 18 1017.5R
LEWISETTA VA     0842   71 72   80/ 14/ 18 1016.7R
RAPPAHANNOCK LGT 0848           40/ 14/ 15 1017.5R
STINGRAY PT      0850   73     360/ 14/ 16 1017.0R
YORK RVR RNG VA  0842   74     130/  5/  6 1015.9F
YORKTOWN VA      0842   74 76   80/  8/ 10 1016.0S
JAMESTOWN VA     0850   72      90/  8/ 10   N/A
DOMINION TERM VA 0842   74     110/  6/  8 1016.0F
KIPTOPEKE VA     0848      75   80/  5/  6   N/A
CHES BAY BRIDGE  0842   74 76  100/  4/  7 1015.9F
CAPE HENRY VA    0842   74     150/  5/  6   N/A
WILLOUBY STN VA  0842   73      60/  2/  3   N/A
CAPE HENRY BUOY  0842      76                N/A     4/ 8   2/11
1ST LANDING BUOY 0850   75     150/  6/  8 1016.0F
CAPE CHARLES BUO 0756      76                N/A     4/ 8   2/11
OFFSHORE WE BUOY 0751      75                N/A     5/ 8   2/12
64NM E OF VA BCH 0850   76 75  100/  6/  6 1016.2F   5/ 8   5/ 8
DUCK PIER NC     0842   76 76  110/  7/  9 1015.4F
44056 DUCK FRF   0841      77                N/A     4/ 8   2/11
OREGON INLET NC  0842   76 78   90/  3/  5 1015.6F
HATTERAS NC      0842   78 79  110/  2/  3 1015.0F
DIAMOND SHLS NC  0850   80 80  170/ 10/ 12 1015.3F   3/11   3/11
CAPE LOOKOUT NC  0800   79     130/  4/  4 1015.0F
$$




USA.gov is the U.S. government's official web portal to all federal, state and local government web resources and services.